Oxford, CT

4:25 AM EST on November 18, 2017 (GMT -0500)
Waterbury-Oxford

Weather History for KOXC - March, 2012

Change the Weather History Date:

Tuesday, March 27, 2012

  Actual Average Record
Temperature  
Mean Temperature 34 °F -  
Max Temperature 44 °F 47 °F 78 °F (1998)
Min Temperature 24 °F 31 °F 17 °F (2001)
Degree Days  
Heating Degree Days 31    
Moisture  
Dew Point 2 °F    
Average Humidity 29    
Maximum Humidity 35    
Minimum Humidity 18    
Precipitation  
Precipitation 0.00 in - - ()
Sea Level Pressure  
Sea Level Pressure 30.16 in    
Wind  
Wind Speed 13 mph (NNW)    
Max Wind Speed 21 mph    
Max Gust Speed 29 mph    
Visibility 10 miles    
Events      
Averages and records for this station are not official NWS values.
T = Trace of Precipitation, MM = Missing Value Source: NWS Daily Summary

Daily Weather History Graph

Daily Weather History Graph

Search for Another Location

Airport or City:

Trip Planner

Search our weather history database for the weather conditions in past years. The results will help you decide how hot, cold, wet, or windy it might be!

Date:

Astronomy

Mar. 27, 2012 Rise Set
Actual Time 6:43 AM EDT 7:12 PM EDT
Civil Twilight 6:15 AM EDT 7:40 PM EDT
Nautical Twilight 5:42 AM EDT 8:13 PM EDT
Astronomical Twilight 5:09 AM EDT 8:47 PM EDT
Moon 9:08 AM EDT (3/27) No Moon Set
Length of Visible Light 13h 25m
Length of Day
12h 29m
Waxing Crescent, 22% of the Moon is Illuminated
Mar 27
Waxing Crescent
Mar 30
First Quarter
Apr 6
Full
Apr 13
Last Quarter
Apr 21
New

Hourly Weather History & Observations

Time (EDT) Temp. Windchill Dew Point Humidity Pressure Visibility Wind Dir Wind Speed Gust Speed Precip Events Conditions
12:15 AM 30.2 °F 18.9 °F 1.4 °F 29% 30.08 in 10.0 mi NNW 16.1 mph 28.8 mph N/A   Clear
12:35 AM 30.2 °F 17.4 °F 1.4 °F 29% 30.09 in 10.0 mi NNW 20.7 mph 25.3 mph N/A   Clear
12:55 AM 28.4 °F 15.8 °F 1.4 °F 31% 30.09 in 10.0 mi NNW 18.4 mph 28.8 mph N/A   Clear
1:15 AM 28.4 °F 15.1 °F 1.4 °F 31% 30.09 in 10.0 mi NNW 20.7 mph 26.5 mph N/A   Clear
1:35 AM 28.4 °F 16.6 °F 1.4 °F 31% 30.09 in 10.0 mi North 16.1 mph 24.2 mph N/A   Clear
1:55 AM 28.4 °F 16.6 °F 1.4 °F 31% 30.10 in 10.0 mi NNW 16.1 mph 23.0 mph N/A   Clear
2:55 AM 26.6 °F 15.2 °F -0.4 °F 31% 30.10 in 10.0 mi NNW 13.8 mph 21.9 mph N/A   Clear
3:15 AM 26.6 °F 16.2 °F -0.4 °F 31% 30.11 in 10.0 mi NNW 11.5 mph 25.3 mph N/A   Clear
3:35 AM 26.6 °F 15.7 °F -0.4 °F 31% 30.11 in 10.0 mi NNW 12.7 mph 24.2 mph N/A   Clear
3:55 AM 26.6 °F 15.2 °F -0.4 °F 31% 30.12 in 10.0 mi North 13.8 mph 24.2 mph N/A   Clear
4:15 AM 26.6 °F 14.3 °F -0.4 °F 31% 30.12 in 10.0 mi NNW 16.1 mph 23.0 mph N/A   Clear
4:35 AM 26.6 °F 13.1 °F -0.4 °F 31% 30.12 in 10.0 mi NNW 19.6 mph 26.5 mph N/A   Clear
4:55 AM 26.6 °F 16.2 °F -0.4 °F 31% 30.13 in 10.0 mi NNW 11.5 mph 24.2 mph N/A   Clear
5:15 AM 24.8 °F 14.0 °F -0.4 °F 34% 30.14 in 10.0 mi NNW 11.5 mph 24.2 mph N/A   Clear
5:35 AM 24.8 °F 12.9 °F -0.4 °F 34% 30.14 in 10.0 mi NNW 13.8 mph 23.0 mph N/A   Clear
5:45 AM 24.8 °F 13.4 °F -0.4 °F 34% 30.15 in 10.0 mi NNW 12.7 mph 23.0 mph N/A   Clear
6:45 AM 24.8 °F 14.0 °F -0.4 °F 34% 30.19 in 10.0 mi NNW 11.5 mph 20.7 mph N/A   Clear
7:45 AM 24.8 °F 11.5 °F -0.4 °F 34% 30.20 in 10.0 mi North 17.3 mph 23.0 mph N/A   Clear
8:45 AM 26.6 °F 13.8 °F 1.4 °F 34% 30.22 in 10.0 mi NNW 17.3 mph 24.2 mph N/A   Clear
10:45 AM 32.0 °F 20.8 °F 3.2 °F 30% 30.22 in 10.0 mi North 17.3 mph 24.2 mph N/A   Clear
11:45 AM 35.6 °F 25.5 °F 3.2 °F 26% 30.23 in 10.0 mi NNW 17.3 mph 28.8 mph N/A   Clear
1:45 PM 41.0 °F 35.2 °F 6.8 °F 24% 30.21 in 10.0 mi NW 9.2 mph 21.9 mph N/A   Clear
2:45 PM 42.8 °F 37.0 °F 6.8 °F 23% 30.19 in 10.0 mi NNW 10.4 mph 18.4 mph N/A   Clear
3:45 PM 44.6 °F 39.7 °F 5.0 °F 20% 30.18 in 10.0 mi NNW 9.2 mph - N/A   Clear
4:45 PM 44.6 °F 39.7 °F 5.0 °F 20% 30.18 in 10.0 mi North 9.2 mph 16.1 mph N/A   Clear
6:45 PM 42.8 °F 36.6 °F 1.4 °F 18% 30.22 in 120.0 mi NW 11.5 mph - N/A   Clear
7:45 PM 39.2 °F 33.0 °F -0.4 °F 19% 30.22 in 10.0 mi North 9.2 mph - N/A   Clear
8:45 PM 35.6 °F - -0.4 °F 22% 30.22 in 10.0 mi Calm Calm - N/A   Clear
8:55 PM 35.6 °F - -0.4 °F 22% 30.22 in 10.0 mi Calm Calm - N/A   Clear
9:35 PM 33.8 °F 30.8 °F 5.0 °F 30% 30.22 in 10.0 mi NE 3.5 mph - N/A   Clear
9:55 PM 33.8 °F - 1.4 °F 25% 30.22 in 10.0 mi Calm Calm - N/A   Clear
10:15 PM 33.8 °F 29.6 °F 1.4 °F 25% 30.22 in 7.0 mi WNW 4.6 mph - N/A   Clear
10:35 PM 33.8 °F - 6.8 °F 32% 30.20 in 10.0 mi Calm Calm - N/A   Clear
10:55 PM 33.8 °F - 8.6 °F 35% 30.18 in 10.0 mi Calm Calm - N/A   Partly Cloudy
11:15 PM 33.8 °F - 8.6 °F 35% 30.18 in 10.0 mi Calm Calm - N/A   Partly Cloudy
11:55 PM 33.8 °F - 8.6 °F 35% 30.17 in 10.0 mi Calm Calm - N/A   Partly Cloudy